Regional Weather Roundup
Issued by NWS

Home | Current Version | Previous Version | Graphics & Text | Print | Product List | Glossary On
Versions: 1 2 3 4 5 6 7 8 9 10 11 12 13 14 15 16 17 18 19 20 21 22 23 24 25 26 27 28 29 30 31 32 33 34 35 36 37 38 39 40 41 42 43 44 45 46 47 48 49 50
000
ASUS43 KOAX 241310
RWRNE

WEATHER ROUNDUP FOR NEBRASKA
NATIONAL WEATHER SERVICE OMAHA NE
800 AM CDT FRI APR 24 2015

NOTES: SATELLITE DATA IS BEING USED TO AUGMENT CLOUD COVER ABOVE
       12000 FEET.
       "FAIR" INDICATES FEW OR NO CLOUDS BELOW 12,000 FEET WITH NO
       SIGNIFICANT WEATHER AND/OR OBSTRUCTIONS TO VISIBILITY.

  * THESE STATIONS DO NOT REPORT WEATHER SUCH AS RAIN...SNOW OR FOG.

NEZ001>004-019>022-054>056-241400-
NEBRASKA PANHANDLE

CITY           SKY/WX    TMP DP  RH WIND       PRES   REMARKS
SCOTTSBLUFF    PTCLDY    43  32  65 NW5       29.68S
ALLIANCE       PTSUNNY   41  38  89 SW6       29.66S
CHADRON        MOSUNNY   42  38  85 MISG      29.64S
KIMBALL        CLEAR     40  37  89 W5        29.70S
SIDNEY         FOG       47  47 100 SW7       29.70R VSB<1/4
$$

NEZ057>060-069>072-079>082-241400-
SOUTHWEST NEBRASKA

CITY           SKY/WX    TMP DP  RH WIND       PRES   REMARKS
IMPERIAL       MOSUNNY   50  48  93 S7        29.68F FOG
LEXINGTON      MOSUNNY   49  47  94 CALM      29.70S FOG
MCCOOK         CLOUDY    54  51  90 SW5       29.70S
OGALLALA       MOSUNNY   50  49  98 CALM      29.66S
$$

NEZ005>010-023>029-035>040-094-241400-
NORTH CENTRAL NEBRASKA

CITY           SKY/WX    TMP DP  RH WIND       PRES   REMARKS
VALENTINE      PTSUNNY   49  45  86 SW9       29.61S
AINSWORTH      PTSUNNY   51  48  89 S12       29.64R
BROKEN BOW     MOSUNNY   50  47  89 S9        29.68F
O`NEILL        CLOUDY    51  46  82 S13       29.69R
ORD            MOSUNNY   49  44  83 S7        29.69F
THEDFORD       PTSUNNY   53  50  89 S10       29.66S
$$

NEZ041-046>049-061>064-073>077-083>087-241400-
SOUTH CENTRAL NEBRASKA

CITY           SKY/WX    TMP DP  RH WIND       PRES   REMARKS
GRAND ISLAND   CLOUDY    54  49  83 S12       29.74R
AURORA         CLOUDY    52  49  90 S9G18     29.73S
HASTINGS       CLOUDY    53  50  89 S7        29.72R
HEBRON         CLOUDY    55  49  81 S12       29.75S
HOLDREGE       CLOUDY    47  46  95 CALM      29.72R FOG
KEARNEY *      PTSUNNY   48  46  93 S7        29.73R
YORK           CLOUDY    54  48  82 S15       29.74S
$$

NEZ011>018-030>034-042>045-241400-
NORTHEAST NEBRASKA

CITY           SKY/WX    TMP DP  RH WIND       PRES   REMARKS
NORFOLK        CLOUDY    53  43  68 S8        29.74R
ALBION         CLOUDY    51  43  76 S8        29.72S
BLAIR          DRIZZLE   54  40  59 S16G26    29.74F
COLUMBUS *     CLOUDY    54  43  66 S8        29.76S
FREMONT        CLOUDY    56  42  60 SE6       29.76R
TEKAMAH        CLOUDY    56  40  55 SE12      29.76S
WAYNE          CLOUDY    54  40  58 S14       29.74R
$$

NEZ050>053-065>068-078-088>093-241400-
SOUTHEAST NEBRASKA

CITY           SKY/WX    TMP DP  RH WIND       PRES   REMARKS
LINCOLN        CLOUDY    57  46  66 S15       29.76S
OMAHA EPPLEY   LGT RAIN  56  41  57 S16       29.77S
BEATRICE       CLOUDY    55  47  72 SE9       29.76S
FALLS CITY     CLOUDY    57  43  59 S10       29.79S
NEBRASKA CITY  CLOUDY    56  37  50 SE9       29.79F
PLATTSMOUTH    CLOUDY    56  38  50 SE15G22   29.77F
$$

NEZ044-045-051>053-067-241400-
OMAHA AREA

CITY           SKY/WX    TMP DP  RH WIND       PRES   REMARKS
OMAHA EPPLEY   LGT RAIN  56  41  57 S16       29.77S
BLAIR          DRIZZLE   54  40  59 S16G26    29.74F
FREMONT        CLOUDY    56  42  60 SE6       29.76R
MILLARD        CLOUDY    56  42  61 SE8       29.76F
OFFUTT AFB     CLOUDY    56  40  55 SE10      29.77S
PLATTSMOUTH    CLOUDY    56  38  50 SE15G22   29.77F
WAHOO          CLOUDY    55  41  60 S13       29.75R
$$



USA.gov is the U.S. government's official web portal to all federal, state and local government web resources and services.